sat.trackr.live / text

‹ back to catalog

STARLINK-33753

NORAD 63443 · 2025-069L

PAYLOAD ACTIVE UNKNOWN

§ Identity

Operator
Country
US
Launch date
2025-04-04
Launch site
AFWTR
Launch vehicle
Mass (kg)
RCS (m²)

Purposes: comms

External: N2YO · Heavens-Above · Gunter

§ Orbital elements

Epoch: 2026-05-24T17:28:45.187392Z

Period
93.37 min
Inclination
53.1596°
Eccentricity
0.0001287
Mean motion
15.42172254 rev/d
Perigee alt
438.8 km
Apogee alt
440.6 km
Semi-major
6,817.8 km
B*
6.7639e-4
RAAN
146.6525°
Arg perigee
95.9552°
Mean anomaly
264.1601°
Rev number
6,507

§ Raw data

STARLINK-337531 63443U 25069L   26144.72830078  .00029146  00000+0  67639-3 0  99992 63443  53.1596 146.6525 0001287  95.9552 264.1601 15.42172254 65074

JSON: /api/v1/satellites/63443 · /tle

For live sub-satellite position, see the globe view (requires WebGL).

§ Visibility from observer

Set your observer location to see the next 7 days of passes ≥ 10°. The values pass through the URL so the page stays shareable.

No JS? Fill the form by hand. The geolocation button needs JavaScript.